Location: Peach Mountain Observatory
(42.3967°N, 83.9367°W)
Time: 17:46:45
(UTC-05:00)

Courier 1B - Visible Passes

Search period start: 17 January 2020 00:00
Search period end: 27 January 2020 00:00
Orbit: 962 x 1209 km, 28.3° (Epoch: 17 January)

Date Brightness Start Highest point End Pass type
(mag) Time Alt. Az. Time Alt. Az. Time Alt. Az.
17 Jan 10.1 05:14:25 10° S 05:18:09 14° SSE 05:21:56 10° SE visible
17 Jan 9.7 07:05:11 10° SW 07:11:19 25° S 07:17:26 10° ESE visible
18 Jan 10.2 04:23:09 10° SSE 04:24:34 11° SSE 04:26:04 10° SE visible
18 Jan 9.7 06:11:50 10° SW 06:17:37 23° SSE 06:23:26 10° ESE visible
19 Jan 9.7 05:20:02 14° SSW 05:23:57 20° SSE 05:29:16 10° ESE visible
19 Jan 9.5 07:10:51 10° SW 07:17:14 28° S 07:23:39 10° ESE visible
20 Jan 9.8 04:29:54 16° SSE 04:30:20 16° SSE 04:34:49 10° ESE visible
20 Jan 9.4 06:17:18 10° SW 06:23:31 27° S 06:29:48 10° ESE visible
21 Jan 10.3 03:39:42 10° SE 03:39:42 10° SE 03:39:51 10° SE visible
21 Jan 9.4 05:26:36 19° SSW 05:29:49 25° SSE 05:35:51 10° ESE visible
21 Jan 9.4 07:16:49 10° WSW 07:23:11 28° S 07:29:35 10° SE visible
22 Jan 9.5 04:36:20 22° SSE 04:36:20 22° SSE 04:41:45 10° ESE visible
22 Jan 9.3 06:23:14 10° SW 06:29:28 28° S 06:35:53 10° SE visible
23 Jan 10.1 03:46:00 14° SE 03:46:00 14° SE 03:47:27 10° ESE visible
23 Jan 9.2 05:32:54 22° SSW 05:35:45 27° S 05:42:04 10° ESE visible
23 Jan 9.5 07:23:04 10° WSW 07:29:06 25° S 07:35:14 10° SE visible
24 Jan 9.3 04:42:33 25° SSE 04:42:33 25° SSE 04:48:09 10° ESE visible
24 Jan 9.3 06:29:27 11° WSW 06:35:24 27° S 06:41:41 10° SE visible
25 Jan 9.9 03:52:10 16° SE 03:52:10 16° SE 03:54:06 10° ESE visible
25 Jan 9.1 05:39:04 23° SSW 05:41:42 27° S 05:48:01 10° SE visible
26 Jan 9.1 04:48:40 27° S 04:48:40 27° S 04:54:14 10° SE visible
26 Jan 9.4 06:35:40 10° WSW 06:41:20 23° SSW 06:47:07 10° SE visible
